Time,TemperatureF,DewpointF,PressureIn,WindDirection,WindDirectionDegrees,WindSpeedMPH,WindSpeedGustMPH,Humidity,HourlyPrecipIn,Conditions,Clouds,dailyrainin,SoftwareType,DateUTC
2013-03-13 00:00:00,34.0,27.2,30.07,NNE,23,1.8,6.9,76,2.59,,,0.00,WUHU216HW,2013-03-13 04:00:00,
2013-03-13 00:05:00,33.8,26.6,30.07,SW,225,2.2,6.9,75,2.59,,,0.00,WUHU216HW,2013-03-13 04:05:00,
2013-03-13 00:10:00,34.0,26.5,30.08,ESE,113,1.6,7.2,74,2.59,,,0.00,WUHU216HW,2013-03-13 04:10:00,
2013-03-13 00:15:00,34.0,26.2,30.08,West,270,0.7,7.2,73,2.59,,,0.00,WUHU216HW,2013-03-13 04:15:00,
2013-03-13 00:20:00,33.8,26.0,30.08,West,270,1.6,7.6,73,2.59,,,0.00,WUHU216HW,2013-03-13 04:20:00,
2013-03-13 00:25:00,34.0,26.2,30.09,South,180,2.5,11.9,73,2.59,,,0.00,WUHU216HW,2013-03-13 04:25:00,
2013-03-13 00:30:00,34.0,25.8,30.08,South,180,3.4,11.9,72,2.59,,,0.00,WUHU216HW,2013-03-13 04:30:00,
2013-03-13 00:35:00,33.8,26.0,30.07,SSW,203,2.5,8.5,73,2.59,,,0.00,WUHU216HW,2013-03-13 04:35:00,
2013-03-13 00:40:00,33.8,26.0,30.06,SSW,203,2.7,8.5,73,2.59,,,0.00,WUHU216HW,2013-03-13 04:40:00,
2013-03-13 00:45:00,33.8,25.7,30.06,South,180,5.4,7.8,72,2.59,,,0.00,WUHU216HW,2013-03-13 04:45:00,
2013-03-13 00:50:00,34.0,25.8,30.07,SSW,203,3.6,9.2,72,2.59,,,0.00,WUHU216HW,2013-03-13 04:50:00,
2013-03-13 00:55:00,34.0,25.8,30.07,NNE,23,1.1,9.2,72,2.59,,,0.00,WUHU216HW,2013-03-13 04:55:00,
2013-03-13 01:00:00,33.8,25.7,30.07,NW,315,4.0,6.3,72,2.59,,,0.00,WUHU216HW,2013-03-13 05:00:00,
2013-03-13 01:05:00,33.8,25.7,30.06,ESE,113,0.9,6.5,72,2.59,,,0.00,WUHU216HW,2013-03-13 05:05:00,
2013-03-13 01:10:00,33.8,25.7,30.07,SSW,203,4.9,12.1,72,2.59,,,0.00,WUHU216HW,2013-03-13 05:10:00,
2013-03-13 01:15:00,33.8,25.4,30.08,West,270,2.0,12.1,71,2.59,,,0.00,WUHU216HW,2013-03-13 05:15:00,
2013-03-13 01:20:00,33.8,25.4,30.08,WNW,293,5.4,9.2,71,2.59,,,0.00,WUHU216HW,2013-03-13 05:20:00,
2013-03-13 01:25:00,33.8,25.7,30.08,WNW,293,2.0,8.3,72,2.59,,,0.00,WUHU216HW,2013-03-13 05:25:00,
2013-03-13 01:30:00,33.7,25.5,30.08,WSW,248,6.5,7.6,72,2.59,,,0.00,WUHU216HW,2013-03-13 05:30:00,
2013-03-13 01:35:00,33.8,25.4,30.08,NNE,23,1.3,7.2,71,2.59,,,0.00,WUHU216HW,2013-03-13 05:35:00,
2013-03-13 01:40:00,33.7,25.2,30.09,NW,315,1.8,7.2,71,2.59,,,0.00,WUHU216HW,2013-03-13 05:40:00,
2013-03-13 01:45:00,33.8,25.4,30.08,SE,135,1.8,7.6,71,2.59,,,0.00,WUHU216HW,2013-03-13 05:45:00,
2013-03-13 01:50:00,33.8,25.0,30.07,WSW,248,4.3,7.6,70,2.59,,,0.00,WUHU216HW,2013-03-13 05:50:00,
2013-03-13 01:55:00,33.7,24.8,30.06,West,270,4.0,6.0,70,2.59,,,0.00,WUHU216HW,2013-03-13 05:55:00,
2013-03-13 02:00:00,33.7,24.8,30.06,WNW,293,6.3,6.3,70,2.59,,,0.00,WUHU216HW,2013-03-13 06:00:00,
2013-03-13 02:05:00,33.7,24.8,30.06,East,90,3.4,8.5,70,2.59,,,0.00,WUHU216HW,2013-03-13 06:05:00,
2013-03-13 02:10:00,33.5,24.7,30.07,West,270,3.8,8.5,70,2.59,,,0.00,WUHU216HW,2013-03-13 06:10:00,
2013-03-13 02:15:00,33.5,24.7,30.08,West,270,4.0,7.4,70,2.59,,,0.00,WUHU216HW,2013-03-13 06:15:00,
2013-03-13 02:20:00,33.5,24.7,30.08,SE,135,3.4,6.7,70,2.59,,,0.00,WUHU216HW,2013-03-13 06:20:00,
2013-03-13 02:25:00,33.5,24.7,30.08,SE,135,1.6,8.5,70,2.59,,,0.00,WUHU216HW,2013-03-13 06:25:00,
2013-03-13 02:30:00,33.7,24.5,30.07,NNW,338,2.5,9.2,69,2.59,,,0.00,WUHU216HW,2013-03-13 06:30:00,
2013-03-13 02:35:00,33.7,24.1,30.07,North,0,4.0,9.2,68,2.59,,,0.00,WUHU216HW,2013-03-13 06:35:00,
2013-03-13 02:40:00,33.7,24.1,30.05,WNW,293,9.2,9.2,68,2.59,,,0.00,WUHU216HW,2013-03-13 06:40:00,
2013-03-13 02:45:00,33.5,23.9,30.04,NW,315,1.3,9.2,68,2.59,,,0.00,WUHU216HW,2013-03-13 06:45:00,
2013-03-13 02:50:00,33.5,23.6,30.04,SE,135,2.0,9.2,67,2.59,,,0.00,WUHU216HW,2013-03-13 06:50:00,
2013-03-13 02:55:00,33.5,23.6,30.05,West,270,2.5,5.4,67,2.59,,,0.00,WUHU216HW,2013-03-13 06:55:00,
2013-03-13 03:00:00,33.5,23.6,30.05,SE,135,2.0,5.4,67,2.59,,,0.00,WUHU216HW,2013-03-13 07:00:00,
2013-03-13 03:05:00,33.5,23.6,30.05,West,270,1.8,4.7,67,2.59,,,0.00,WUHU216HW,2013-03-13 07:05:00,
2013-03-13 03:10:00,33.3,23.5,30.05,WNW,293,2.5,4.7,67,2.59,,,0.00,WUHU216HW,2013-03-13 07:10:00,
2013-03-13 03:15:00,33.3,23.5,30.05,North,0,1.1,4.9,67,2.59,,,0.00,WUHU216HW,2013-03-13 07:15:00,
2013-03-13 03:20:00,33.1,23.7,30.04,WNW,293,3.1,6.0,68,2.59,,,0.00,WUHU216HW,2013-03-13 07:20:00,
2013-03-13 03:25:00,32.9,23.5,30.04,West,270,4.7,6.0,68,2.59,,,0.00,WUHU216HW,2013-03-13 07:25:00,
2013-03-13 03:30:00,32.9,23.5,30.03,West,270,4.0,6.3,68,2.59,,,0.00,WUHU216HW,2013-03-13 07:30:00,
2013-03-13 03:35:00,32.8,23.3,30.04,NW,315,0.4,6.3,68,2.59,,,0.00,WUHU216HW,2013-03-13 07:35:00,
2013-03-13 03:40:00,32.8,23.7,30.06,NNW,338,0.4,5.8,69,2.59,,,0.00,WUHU216HW,2013-03-13 07:40:00,
2013-03-13 03:45:00,32.8,23.7,30.06,WSW,248,0.4,4.7,69,2.59,,,0.00,WUHU216HW,2013-03-13 07:45:00,
2013-03-13 03:50:00,32.8,24.0,30.05,NW,315,0.0,2.9,70,2.59,,,0.00,WUHU216HW,2013-03-13 07:50:00,
2013-03-13 03:55:00,32.8,24.0,30.04,West,270,2.2,2.2,70,2.59,,,0.00,WUHU216HW,2013-03-13 07:55:00,
2013-03-13 04:00:00,32.8,24.0,30.04,NW,315,1.1,3.4,70,2.59,,,0.00,WUHU216HW,2013-03-13 08:00:00,
2013-03-13 04:08:00,32.8,23.7,30.05,SE,135,0.4,3.4,69,2.59,,,0.00,WUHU216HW,2013-03-13 08:08:00,
2013-03-13 04:13:00,32.8,23.7,30.05,WSW,248,0.9,2.5,69,2.59,,,0.00,WUHU216HW,2013-03-13 08:13:00,
2013-03-13 04:18:00,32.8,23.7,30.05,WNW,293,2.2,3.4,69,2.59,,,0.00,WUHU216HW,2013-03-13 08:18:00,
2013-03-13 04:23:00,32.8,23.7,30.04,West,270,1.1,3.4,69,2.59,,,0.00,WUHU216HW,2013-03-13 08:23:00,
2013-03-13 04:28:00,32.8,23.7,30.03,NNW,338,0.4,2.5,69,2.59,,,0.00,WUHU216HW,2013-03-13 08:28:00,
2013-03-13 04:33:00,32.6,23.5,30.03,WSW,248,0.2,2.5,69,2.59,,,0.00,WUHU216HW,2013-03-13 08:33:00,
2013-03-13 04:38:00,32.6,23.5,30.03,NNE,23,0.4,2.0,69,2.59,,,0.00,WUHU216HW,2013-03-13 08:38:00,
2013-03-13 04:43:00,32.6,23.5,30.02,SSW,203,0.0,0.4,69,2.59,,,0.00,WUHU216HW,2013-03-13 08:43:00,
2013-03-13 04:48:00,32.4,23.4,30.04,WNW,293,0.2,0.7,69,2.59,,,0.00,WUHU216HW,2013-03-13 08:48:00,
2013-03-13 04:53:00,32.6,23.5,30.04,South,180,0.4,0.7,69,2.59,,,0.00,WUHU216HW,2013-03-13 08:53:00,
2013-03-13 04:58:00,32.6,23.5,30.03,SSW,203,0.4,1.8,69,2.59,,,0.00,WUHU216HW,2013-03-13 08:58:00,
2013-03-13 05:03:00,32.6,23.1,30.02,ESE,113,0.4,1.8,68,2.59,,,0.00,WUHU216HW,2013-03-13 09:03:00,
2013-03-13 05:08:00,32.8,23.3,30.03,North,0,0.4,1.8,68,2.59,,,0.00,WUHU216HW,2013-03-13 09:08:00,
2013-03-13 05:13:00,32.8,23.0,30.04,South,180,0.0,1.3,67,2.59,,,0.00,WUHU216HW,2013-03-13 09:13:00,
2013-03-13 05:18:00,32.8,23.3,30.05,WSW,248,0.2,1.3,68,2.59,,,0.00,WUHU216HW,2013-03-13 09:18:00,
2013-03-13 05:23:00,32.6,23.1,30.04,SW,225,0.2,1.3,68,2.59,,,0.00,WUHU216HW,2013-03-13 09:23:00,
2013-03-13 05:28:00,32.6,22.8,30.03,SSE,158,1.1,2.7,67,2.59,,,0.00,WUHU216HW,2013-03-13 09:28:00,
2013-03-13 05:33:00,32.6,22.8,30.03,SSE,158,0.4,2.7,67,2.59,,,0.00,WUHU216HW,2013-03-13 09:33:00,
2013-03-13 05:38:00,32.6,22.8,30.04,SW,225,1.1,2.2,67,2.59,,,0.00,WUHU216HW,2013-03-13 09:38:00,
2013-03-13 05:43:00,32.6,22.8,30.04,SSE,158,1.1,1.6,67,2.59,,,0.00,WUHU216HW,2013-03-13 09:43:00,
2013-03-13 05:48:00,32.6,22.8,30.05,SSE,158,1.1,2.9,67,2.59,,,0.00,WUHU216HW,2013-03-13 09:48:00,
2013-03-13 05:53:00,32.8,23.0,30.05,South,180,0.9,2.9,67,2.59,,,0.00,WUHU216HW,2013-03-13 09:53:00,
2013-03-13 05:58:00,32.6,22.8,30.05,ESE,113,0.7,2.5,67,2.59,,,0.00,WUHU216HW,2013-03-13 09:58:00,
2013-03-13 06:03:00,32.8,23.0,30.05,South,180,1.6,4.0,67,2.59,,,0.00,WUHU216HW,2013-03-13 10:03:00,
2013-03-13 06:08:00,32.9,23.1,30.04,SW,225,1.3,4.0,67,2.59,,,0.00,WUHU216HW,2013-03-13 10:08:00,
2013-03-13 06:13:00,33.3,23.5,30.04,WNW,293,1.3,2.7,67,2.59,,,0.00,WUHU216HW,2013-03-13 10:13:00,
2013-03-13 06:18:00,33.1,23.3,30.04,SW,225,1.1,2.7,67,2.59,,,0.00,WUHU216HW,2013-03-13 10:18:00,
2013-03-13 06:23:00,33.1,23.3,30.04,SW,225,0.2,2.7,67,2.59,,,0.00,WUHU216HW,2013-03-13 10:23:00,
2013-03-13 06:28:00,32.9,23.1,30.04,SE,135,2.7,2.7,67,2.59,,,0.00,WUHU216HW,2013-03-13 10:28:00,
2013-03-13 06:33:00,32.8,23.0,30.04,NNE,23,1.1,2.7,67,2.59,,,0.00,WUHU216HW,2013-03-13 10:33:00,
2013-03-13 06:38:00,32.8,23.3,30.05,WSW,248,0.9,5.4,68,2.59,,,0.00,WUHU216HW,2013-03-13 10:38:00,
2013-03-13 06:43:00,32.8,23.3,30.06,SE,135,1.1,5.4,68,2.59,,,0.00,WUHU216HW,2013-03-13 10:43:00,
2013-03-13 06:48:00,32.8,23.3,30.07,NNW,338,1.1,4.7,68,2.59,,,0.00,WUHU216HW,2013-03-13 10:48:00,
2013-03-13 06:53:00,32.9,23.9,30.07,SW,225,1.6,4.7,69,2.59,,,0.00,WUHU216HW,2013-03-13 10:53:00,
2013-03-13 06:58:00,33.1,24.0,30.07,South,180,1.1,3.1,69,2.59,,,0.00,WUHU216HW,2013-03-13 10:58:00,
2013-03-13 07:03:00,33.1,24.0,30.07,ENE,68,3.4,3.4,69,2.59,,,0.00,WUHU216HW,2013-03-13 11:03:00,
2013-03-13 07:08:00,33.3,24.2,30.07,West,270,1.3,3.4,69,2.59,,,0.00,WUHU216HW,2013-03-13 11:08:00,
2013-03-13 07:13:00,33.3,24.6,30.07,WNW,293,1.3,3.4,70,2.59,,,0.00,WUHU216HW,2013-03-13 11:13:00,
2013-03-13 07:18:00,33.3,24.6,30.07,West,270,1.3,3.4,70,2.59,,,0.00,WUHU216HW,2013-03-13 11:18:00,
2013-03-13 07:23:00,33.3,24.2,30.06,SSW,203,1.1,3.4,69,2.59,,,0.00,WUHU216HW,2013-03-13 11:23:00,
2013-03-13 07:28:00,33.5,24.3,30.06,SW,225,2.9,3.1,69,2.59,,,0.00,WUHU216HW,2013-03-13 11:28:00,
2013-03-13 07:33:00,33.5,24.3,30.06,East,90,1.8,3.1,69,2.59,,,0.00,WUHU216HW,2013-03-13 11:33:00,
2013-03-13 07:38:00,33.5,24.7,30.07,West,270,1.6,2.2,70,2.59,,,0.00,WUHU216HW,2013-03-13 11:38:00,
2013-03-13 07:43:00,33.3,24.6,30.07,SW,225,0.4,2.2,70,2.59,,,0.00,WUHU216HW,2013-03-13 11:43:00,
2013-03-13 07:48:00,33.3,24.6,30.07,South,180,0.9,3.6,70,2.59,,,0.00,WUHU216HW,2013-03-13 11:48:00,
2013-03-13 07:53:00,33.3,24.6,30.07,North,0,0.4,3.6,70,2.59,,,0.00,WUHU216HW,2013-03-13 11:53:00,
2013-03-13 07:58:00,33.3,24.6,30.07,SSW,203,2.5,2.5,70,2.59,,,0.00,WUHU216HW,2013-03-13 11:58:00,
2013-03-13 08:03:00,33.3,24.6,30.06,South,180,0.4,5.1,70,2.59,,,0.00,WUHU216HW,2013-03-13 12:03:00,
2013-03-13 08:08:00,33.1,24.4,30.06,WSW,248,0.9,5.1,70,2.59,,,0.00,WUHU216HW,2013-03-13 12:08:00,
2013-03-13 08:13:00,33.1,24.4,30.05,SW,225,0.2,2.7,70,2.59,,,0.00,WUHU216HW,2013-03-13 12:13:00,
2013-03-13 08:18:00,33.1,24.4,30.05,South,180,2.5,2.9,70,2.59,,,0.00,WUHU216HW,2013-03-13 12:18:00,
2013-03-13 08:23:00,32.9,24.2,30.05,South,180,2.7,3.4,70,2.59,,,0.00,WUHU216HW,2013-03-13 12:23:00,
2013-03-13 08:28:00,32.9,24.6,30.05,SSW,203,3.4,3.4,71,2.59,,,0.00,WUHU216HW,2013-03-13 12:28:00,
2013-03-13 08:33:00,32.8,24.4,30.05,SSW,203,3.1,4.0,71,2.59,,,0.00,WUHU216HW,2013-03-13 12:33:00,
2013-03-13 08:38:00,32.8,24.4,30.05,South,180,2.7,4.3,71,2.59,,,0.00,WUHU216HW,2013-03-13 12:38:00,
2013-03-13 08:43:00,32.9,24.6,30.07,South,180,2.2,4.9,71,2.59,,,0.00,WUHU216HW,2013-03-13 12:43:00,
2013-03-13 08:48:00,32.9,24.6,30.08,South,180,3.8,4.9,71,2.59,,,0.00,WUHU216HW,2013-03-13 12:48:00,
2013-03-13 08:53:00,33.1,24.4,30.08,SE,135,1.6,5.1,70,2.59,,,0.00,WUHU216HW,2013-03-13 12:53:00,
2013-03-13 08:58:00,33.3,24.6,30.08,SSW,203,1.6,5.1,70,2.59,,,0.00,WUHU216HW,2013-03-13 12:58:00,
2013-03-13 09:03:00,33.5,24.7,30.07,SSW,203,0.7,4.0,70,2.59,,,0.00,WUHU216HW,2013-03-13 13:03:00,
2013-03-13 09:08:00,33.7,24.8,30.08,South,180,2.2,4.0,70,2.59,,,0.00,WUHU216HW,2013-03-13 13:08:00,
2013-03-13 09:13:00,33.8,25.0,30.08,SSW,203,0.0,2.7,70,2.59,,,0.00,WUHU216HW,2013-03-13 13:13:00,
2013-03-13 09:18:00,34.2,25.4,30.07,SSW,203,0.2,2.2,70,2.59,,,0.00,WUHU216HW,2013-03-13 13:18:00,
2013-03-13 09:23:00,34.4,25.6,30.07,West,270,0.0,2.5,70,2.59,,,0.00,WUHU216HW,2013-03-13 13:23:00,
2013-03-13 09:28:00,34.7,25.9,30.07,East,90,0.2,2.5,70,2.59,,,0.00,WUHU216HW,2013-03-13 13:28:00,
2013-03-13 09:33:00,34.9,25.4,30.06,NW,315,0.4,1.6,68,2.59,,,0.00,WUHU216HW,2013-03-13 13:33:00,
2013-03-13 09:38:00,35.3,25.7,30.05,SW,225,1.8,3.8,68,2.59,,,0.00,WUHU216HW,2013-03-13 13:38:00,
2013-03-13 09:43:00,35.6,25.7,30.04,West,270,2.7,3.8,67,2.59,,,0.00,WUHU216HW,2013-03-13 13:43:00,
2013-03-13 09:48:00,35.8,25.9,30.04,NW,315,0.2,3.4,67,2.59,,,0.00,WUHU216HW,2013-03-13 13:48:00,
2013-03-13 09:53:00,36.0,26.1,30.04,SSE,158,2.2,3.4,67,2.59,,,0.00,WUHU216HW,2013-03-13 13:53:00,
2013-03-13 09:58:00,36.2,25.9,30.05,SW,225,1.1,3.4,66,2.59,,,0.00,WUHU216HW,2013-03-13 13:58:00,
2013-03-13 10:03:00,36.4,24.9,30.05,SSW,203,1.6,6.9,63,2.59,,,0.00,WUHU216HW,2013-03-13 14:03:00,
2013-03-13 10:08:00,36.2,25.2,30.06,SSE,158,0.2,6.9,64,2.59,,,0.00,WUHU216HW,2013-03-13 14:08:00,
2013-03-13 10:13:00,36.2,25.2,30.06,NNE,23,0.4,4.9,64,2.59,,,0.00,WUHU216HW,2013-03-13 14:13:00,
2013-03-13 10:18:00,36.4,24.9,30.06,WSW,248,0.4,6.3,63,2.59,,,0.00,WUHU216HW,2013-03-13 14:18:00,
2013-03-13 10:23:00,36.5,24.8,30.06,WNW,293,1.6,6.3,62,2.59,,,0.00,WUHU216HW,2013-03-13 14:23:00,
2013-03-13 10:28:00,36.5,25.1,30.06,ESE,113,1.1,2.7,63,2.59,,,0.00,WUHU216HW,2013-03-13 14:28:00,
2013-03-13 10:33:00,37.1,25.3,30.05,West,270,3.4,7.6,62,2.59,,,0.00,WUHU216HW,2013-03-13 14:33:00,
2013-03-13 10:38:00,37.1,24.5,30.04,SW,225,4.0,7.6,60,2.59,,,0.00,WUHU216HW,2013-03-13 14:38:00,
2013-03-13 10:43:00,37.3,24.7,30.04,NW,315,1.1,5.4,60,2.59,,,0.00,WUHU216HW,2013-03-13 14:43:00,
2013-03-13 10:48:00,37.6,25.0,30.05,NW,315,2.2,5.6,60,2.59,,,0.00,WUHU216HW,2013-03-13 14:48:00,
2013-03-13 10:53:00,37.8,25.2,30.06,West,270,4.0,6.0,60,2.59,,,0.00,WUHU216HW,2013-03-13 14:53:00,
2013-03-13 10:58:00,37.6,25.0,30.07,WNW,293,3.4,9.4,60,2.59,,,0.00,WUHU216HW,2013-03-13 14:58:00,
2013-03-13 11:03:00,37.1,24.5,30.07,NW,315,1.3,9.4,60,2.59,,,0.00,WUHU216HW,2013-03-13 15:03:00,
2013-03-13 11:08:00,36.7,24.9,30.07,West,270,1.1,7.6,62,2.59,,,0.00,WUHU216HW,2013-03-13 15:08:00,
2013-03-13 11:13:00,36.2,25.2,30.06,West,270,3.6,4.9,64,2.59,,,0.00,WUHU216HW,2013-03-13 15:13:00,
2013-03-13 11:18:00,36.0,25.4,30.05,WNW,293,0.7,3.6,65,2.59,,,0.00,WUHU216HW,2013-03-13 15:18:00,
2013-03-13 11:23:00,36.4,25.8,30.04,WNW,293,3.4,3.6,65,2.59,,,0.00,WUHU216HW,2013-03-13 15:23:00,
2013-03-13 11:28:00,36.9,26.2,30.05,SSW,203,4.3,4.3,65,2.59,,,0.00,WUHU216HW,2013-03-13 15:28:00,
2013-03-13 11:33:00,37.3,26.2,30.04,WSW,248,2.5,4.3,64,2.59,,,0.00,WUHU216HW,2013-03-13 15:33:00,
2013-03-13 11:38:00,37.4,26.4,30.05,WSW,248,4.7,6.5,64,2.59,,,0.00,WUHU216HW,2013-03-13 15:38:00,
2013-03-13 11:43:00,36.0,25.8,30.07,NW,315,7.2,9.2,66,2.59,,,0.00,WUHU216HW,2013-03-13 15:43:00,
2013-03-13 11:48:00,34.9,25.4,30.08,NNE,23,2.0,9.2,68,2.59,,,0.00,WUHU216HW,2013-03-13 15:48:00,
2013-03-13 11:53:00,34.7,25.9,30.08,NW,315,2.0,7.2,70,2.59,,,0.00,WUHU216HW,2013-03-13 15:53:00,
2013-03-13 11:58:00,34.9,25.7,30.08,NNW,338,2.2,7.8,69,2.59,,,0.00,WUHU216HW,2013-03-13 15:58:00,
2013-03-13 12:03:00,34.9,25.4,30.07,WNW,293,2.2,7.8,68,2.59,,,0.00,WUHU216HW,2013-03-13 16:03:00,
2013-03-13 12:08:00,35.5,25.6,30.07,West,270,1.8,5.4,67,2.59,,,0.00,WUHU216HW,2013-03-13 16:08:00,
2013-03-13 12:13:00,35.5,24.1,30.07,South,180,1.1,6.3,63,2.59,,,0.00,WUHU216HW,2013-03-13 16:13:00,
2013-03-13 12:18:00,35.6,23.9,30.07,SW,225,2.2,6.7,62,2.59,,,0.00,WUHU216HW,2013-03-13 16:18:00,
2013-03-13 12:23:00,36.0,24.0,30.06,ESE,113,0.2,6.7,61,2.59,,,0.00,WUHU216HW,2013-03-13 16:23:00,
2013-03-13 12:28:00,36.2,24.0,30.05,WNW,293,1.1,3.1,61,2.59,,,0.00,WUHU216HW,2013-03-13 16:28:00,
2013-03-13 12:33:00,36.7,23.8,30.04,SW,225,3.8,4.3,59,2.59,,,0.00,WUHU216HW,2013-03-13 16:33:00,
2013-03-13 12:38:00,37.6,23.3,30.05,WSW,248,3.4,4.9,56,2.59,,,0.00,WUHU216HW,2013-03-13 16:38:00,
2013-03-13 12:43:00,37.8,21.7,30.04,WNW,293,2.5,7.2,52,2.59,,,0.00,WUHU216HW,2013-03-13 16:43:00,
2013-03-13 12:48:00,38.0,21.0,30.04,West,270,4.0,7.2,50,2.59,,,0.00,WUHU216HW,2013-03-13 16:48:00,
2013-03-13 12:53:00,38.0,20.5,30.04,North,0,1.3,4.0,49,2.59,,,0.00,WUHU216HW,2013-03-13 16:53:00,
2013-03-13 12:58:00,38.2,20.2,30.05,North,0,2.5,5.6,48,2.59,,,0.00,WUHU216HW,2013-03-13 16:58:00,
2013-03-13 13:03:00,38.5,19.5,30.05,NNW,338,4.7,5.6,46,2.59,,,0.00,WUHU216HW,2013-03-13 17:03:00,
2013-03-13 13:08:00,39.2,21.1,30.05,ESE,113,0.7,6.9,48,2.59,,,0.00,WUHU216HW,2013-03-13 17:08:00,
2013-03-13 13:13:00,40.0,21.3,30.05,NW,315,6.0,7.6,47,2.59,,,0.00,WUHU216HW,2013-03-13 17:13:00,
2013-03-13 13:18:00,40.1,22.4,30.03,North,0,1.8,7.6,49,2.59,,,0.00,WUHU216HW,2013-03-13 17:18:00,
2013-03-13 13:23:00,39.8,21.1,30.04,West,270,1.8,6.0,47,2.59,,,0.00,WUHU216HW,2013-03-13 17:23:00,
2013-03-13 13:28:00,39.2,19.5,30.04,WNW,293,5.1,6.5,45,2.59,,,0.00,WUHU216HW,2013-03-13 17:28:00,
2013-03-13 13:33:00,39.1,19.4,30.05,SSE,158,1.6,6.5,45,2.59,,,0.00,WUHU216HW,2013-03-13 17:33:00,
2013-03-13 13:38:00,39.1,19.4,30.05,WNW,293,1.1,7.8,45,2.59,,,0.00,WUHU216HW,2013-03-13 17:38:00,
2013-03-13 13:43:00,39.1,19.4,30.06,WNW,293,4.7,7.8,45,2.59,,,0.00,WUHU216HW,2013-03-13 17:43:00,
2013-03-13 13:48:00,39.1,19.4,30.05,WNW,293,7.2,7.2,45,2.59,,,0.00,WUHU216HW,2013-03-13 17:48:00,
2013-03-13 13:53:00,39.2,19.5,30.04,East,90,0.7,7.2,45,2.59,,,0.00,WUHU216HW,2013-03-13 17:53:00,
2013-03-13 13:58:00,39.2,19.0,30.04,WNW,293,2.7,7.2,44,2.59,,,0.00,WUHU216HW,2013-03-13 17:58:00,
2013-03-13 14:03:00,39.2,19.0,30.04,WSW,248,3.1,8.5,44,2.59,,,0.00,WUHU216HW,2013-03-13 18:03:00,
2013-03-13 14:08:00,39.4,19.2,30.03,NW,315,3.4,8.5,44,2.59,,,0.00,WUHU216HW,2013-03-13 18:08:00,
2013-03-13 14:13:00,39.2,18.5,30.03,North,0,1.1,8.5,43,2.59,,,0.00,WUHU216HW,2013-03-13 18:13:00,
2013-03-13 14:18:00,39.2,18.0,30.03,NW,315,5.4,8.5,42,2.59,,,0.00,WUHU216HW,2013-03-13 18:18:00,
2013-03-13 14:23:00,39.2,18.5,30.02,WNW,293,2.5,6.0,43,2.59,,,0.00,WUHU216HW,2013-03-13 18:23:00,
2013-03-13 14:28:00,39.4,19.2,30.03,NW,315,0.7,5.6,44,2.59,,,0.00,WUHU216HW,2013-03-13 18:28:00,
2013-03-13 14:33:00,40.0,19.2,30.04,SSE,158,2.5,6.7,43,2.59,,,0.00,WUHU216HW,2013-03-13 18:33:00,
2013-03-13 14:38:00,40.3,19.4,30.05,WNW,293,4.0,6.7,43,2.59,,,0.00,WUHU216HW,2013-03-13 18:38:00,
2013-03-13 14:43:00,40.5,19.6,30.06,WSW,248,8.5,8.5,43,2.59,,,0.00,WUHU216HW,2013-03-13 18:43:00,
2013-03-13 14:48:00,40.0,19.2,30.07,ESE,113,5.4,8.9,43,2.59,,,0.00,WUHU216HW,2013-03-13 18:48:00,
2013-03-13 14:53:00,39.6,19.4,30.07,WNW,293,4.7,8.9,44,2.59,,,0.00,WUHU216HW,2013-03-13 18:53:00,
2013-03-13 14:58:00,39.4,19.7,30.07,SE,135,0.9,5.4,45,2.59,,,0.00,WUHU216HW,2013-03-13 18:58:00,
2013-03-13 15:03:00,39.6,20.3,30.07,ENE,68,0.4,4.3,46,2.59,,,0.00,WUHU216HW,2013-03-13 19:03:00,
2013-03-13 15:08:00,39.8,20.0,30.07,NNW,338,1.6,6.0,45,2.59,,,0.00,WUHU216HW,2013-03-13 19:08:00,
2013-03-13 15:13:00,40.0,20.2,30.08,WSW,248,3.4,6.0,45,2.59,,,0.00,WUHU216HW,2013-03-13 19:13:00,
2013-03-13 15:18:00,40.7,20.8,30.08,West,270,2.5,5.8,45,2.59,,,0.00,WUHU216HW,2013-03-13 19:18:00,
2013-03-13 15:23:00,41.0,20.6,30.08,NW,315,4.5,5.8,44,2.59,,,0.00,WUHU216HW,2013-03-13 19:23:00,
2013-03-13 15:29:00,41.0,20.6,30.07,WSW,248,5.4,6.5,44,2.59,,,0.00,WUHU216HW,2013-03-13 19:29:00,
2013-03-13 15:34:00,40.9,21.0,30.07,NNW,338,3.4,8.3,45,2.59,,,0.00,WUHU216HW,2013-03-13 19:34:00,
2013-03-13 15:38:00,40.7,20.4,30.06,WNW,293,3.4,8.3,44,2.59,,,0.00,WUHU216HW,2013-03-13 19:38:00,
2013-03-13 15:44:00,40.0,19.6,30.05,West,270,1.3,5.6,44,2.59,,,0.00,WUHU216HW,2013-03-13 19:44:00,
2013-03-13 15:49:00,38.9,21.3,30.06,SE,135,10.7,10.7,49,2.59,,,0.00,WUHU216HW,2013-03-13 19:49:00,
2013-03-13 15:53:00,37.3,24.2,30.06,NW,315,7.6,10.7,59,2.59,,,0.00,WUHU216HW,2013-03-13 19:53:00,
2013-03-13 15:58:00,36.0,24.3,30.07,NW,315,8.9,12.8,62,2.59,,,0.00,WUHU216HW,2013-03-13 19:58:00,
2013-03-13 16:03:00,35.5,24.5,30.08,SE,135,1.1,12.8,64,4.53,,,0.00,WUHU216HW,2013-03-13 20:03:00,
2013-03-13 16:09:00,36.0,24.3,30.09,NW,315,6.0,9.2,62,4.53,,,0.00,WUHU216HW,2013-03-13 20:09:00,
2013-03-13 16:13:00,36.5,24.4,30.09,NNW,338,1.8,9.2,61,4.53,,,0.00,WUHU216HW,2013-03-13 20:13:00,
2013-03-13 16:18:00,36.7,24.2,30.10,SW,225,1.8,6.9,60,4.53,,,0.00,WUHU216HW,2013-03-13 20:18:00,
2013-03-13 16:23:00,36.5,24.0,30.10,WSW,248,8.1,9.6,60,4.53,,,0.00,WUHU216HW,2013-03-13 20:23:00,
2013-03-13 16:28:00,36.4,23.9,30.10,WNW,293,3.1,9.6,60,4.53,,,0.00,WUHU216HW,2013-03-13 20:28:00,
2013-03-13 16:33:00,36.5,24.0,30.10,WNW,293,2.9,8.3,60,4.53,,,0.00,WUHU216HW,2013-03-13 20:33:00,
2013-03-13 16:38:00,36.7,24.2,30.10,West,270,3.4,6.9,60,4.53,,,0.00,WUHU216HW,2013-03-13 20:38:00,
2013-03-13 16:44:00,36.7,23.8,30.10,SW,225,2.2,7.2,59,4.53,,,0.00,WUHU216HW,2013-03-13 20:44:00,
2013-03-13 16:49:00,37.1,24.1,30.10,WNW,293,2.7,7.2,59,4.53,,,0.00,WUHU216HW,2013-03-13 20:49:00,
2013-03-13 16:54:00,37.6,23.7,30.10,WSW,248,1.3,4.9,57,4.53,,,0.00,WUHU216HW,2013-03-13 20:54:00,
2013-03-13 16:59:00,38.0,23.1,30.09,WSW,248,3.1,5.6,55,1.94,,,0.00,WUHU216HW,2013-03-13 20:59:00,
2013-03-13 17:04:00,37.4,21.8,30.09,WNW,293,1.3,5.6,53,2.59,,,0.00,WUHU216HW,2013-03-13 21:04:00,
2013-03-13 17:09:00,37.6,22.4,30.09,West,270,7.6,7.6,54,2.59,,,0.00,WUHU216HW,2013-03-13 21:09:00,
2013-03-13 17:14:00,37.8,20.9,30.08,West,270,4.9,7.6,50,2.59,,,0.00,WUHU216HW,2013-03-13 21:14:00,
2013-03-13 17:19:00,37.4,19.4,30.07,WNW,293,7.2,8.3,48,2.59,,,0.00,WUHU216HW,2013-03-13 21:19:00,
2013-03-13 17:23:00,37.1,21.5,30.07,NW,315,8.7,9.4,53,2.59,,,0.00,WUHU216HW,2013-03-13 21:23:00,
2013-03-13 17:29:00,36.0,21.4,30.06,NW,315,6.9,9.6,55,2.59,,,0.00,WUHU216HW,2013-03-13 21:29:00,
2013-03-13 17:34:00,35.3,22.0,30.06,West,270,7.2,10.5,58,2.59,,,0.00,WUHU216HW,2013-03-13 21:34:00,
2013-03-13 17:39:00,34.9,21.6,30.06,WNW,293,10.5,10.5,58,2.59,,,0.00,WUHU216HW,2013-03-13 21:39:00,
2013-03-13 17:44:00,34.7,21.4,30.07,NNW,338,4.7,10.5,58,2.59,,,0.00,WUHU216HW,2013-03-13 21:44:00,
2013-03-13 17:49:00,35.1,21.4,30.08,ENE,68,1.6,7.6,57,2.59,,,0.00,WUHU216HW,2013-03-13 21:49:00,
2013-03-13 17:54:00,35.1,21.8,30.08,NW,315,6.0,7.6,58,2.59,,,0.00,WUHU216HW,2013-03-13 21:54:00,
2013-03-13 17:59:00,34.9,20.8,30.09,SSE,158,1.8,6.7,56,2.59,,,0.00,WUHU216HW,2013-03-13 21:59:00,
2013-03-13 18:04:00,34.6,20.4,30.09,West,270,1.1,6.7,56,2.59,,,0.00,WUHU216HW,2013-03-13 22:04:00,
2013-03-13 18:09:00,34.6,20.4,30.10,NE,45,1.3,6.3,56,2.59,,,0.00,WUHU216HW,2013-03-13 22:09:00,
2013-03-13 18:14:00,34.6,20.0,30.10,WSW,248,3.8,7.6,55,2.59,,,0.00,WUHU216HW,2013-03-13 22:14:00,
2013-03-13 18:19:00,34.7,20.2,30.10,NNW,338,1.8,7.6,55,2.59,,,0.00,WUHU216HW,2013-03-13 22:19:00,
2013-03-13 18:24:00,34.9,19.9,30.10,SSW,203,7.6,8.9,54,2.59,,,0.00,WUHU216HW,2013-03-13 22:24:00,
2013-03-13 18:29:00,34.4,19.8,30.10,West,270,4.7,9.6,55,2.59,,,0.00,WUHU216HW,2013-03-13 22:29:00,
2013-03-13 18:34:00,34.2,20.1,30.10,WSW,248,4.7,10.5,56,2.59,,,0.00,WUHU216HW,2013-03-13 22:34:00,
2013-03-13 18:39:00,34.2,20.1,30.10,South,180,1.3,10.5,56,2.59,,,0.00,WUHU216HW,2013-03-13 22:39:00,
2013-03-13 18:44:00,34.6,20.4,30.10,NW,315,6.0,8.1,56,2.59,,,0.00,WUHU216HW,2013-03-13 22:44:00,
2013-03-13 18:49:00,34.2,20.1,30.11,WNW,293,9.8,9.8,56,2.59,,,0.00,WUHU216HW,2013-03-13 22:49:00,
2013-03-13 18:54:00,33.7,19.5,30.11,WNW,293,6.5,9.8,56,2.59,,,0.00,WUHU216HW,2013-03-13 22:54:00,
2013-03-13 18:59:00,33.3,19.2,30.10,NW,315,4.7,8.1,56,2.59,,,0.00,WUHU216HW,2013-03-13 22:59:00,
2013-03-13 19:04:00,33.1,19.4,30.10,NNW,338,5.4,8.1,57,2.59,,,0.00,WUHU216HW,2013-03-13 23:04:00,
2013-03-13 19:09:00,32.8,20.0,30.10,NW,315,4.0,7.4,59,2.59,,,0.00,WUHU216HW,2013-03-13 23:09:00,
2013-03-13 19:14:00,32.6,20.3,30.10,East,90,2.7,6.9,60,2.59,,,0.00,WUHU216HW,2013-03-13 23:14:00,
2013-03-13 19:19:00,32.2,19.1,30.09,ESE,113,2.2,6.9,58,2.59,,,0.00,WUHU216HW,2013-03-13 23:19:00,
2013-03-13 19:24:00,32.0,17.6,30.09,NE,45,4.3,8.1,55,2.59,,,0.00,WUHU216HW,2013-03-13 23:24:00,
2013-03-13 19:29:00,31.9,17.0,30.10,NNW,338,6.9,8.1,54,2.59,,,0.00,WUHU216HW,2013-03-13 23:29:00,
2013-03-13 19:34:00,31.7,16.8,30.11,SE,135,1.1,8.3,54,2.59,,,0.00,WUHU216HW,2013-03-13 23:34:00,
2013-03-13 19:39:00,31.5,17.6,30.12,North,0,1.6,8.3,56,2.59,,,0.00,WUHU216HW,2013-03-13 23:39:00,
2013-03-13 19:44:00,31.3,17.4,30.12,WNW,293,2.5,8.1,56,2.59,,,0.00,WUHU216HW,2013-03-13 23:44:00,
2013-03-13 19:49:00,31.1,18.5,30.12,WNW,293,2.5,8.1,59,2.59,,,0.00,WUHU216HW,2013-03-13 23:49:00,
2013-03-13 19:54:00,30.8,18.5,30.12,WNW,293,8.1,8.1,60,2.59,,,0.00,WUHU216HW,2013-03-13 23:54:00,
2013-03-13 19:59:00,30.6,17.9,30.12,WSW,248,5.8,8.1,59,2.59,,,0.00,WUHU216HW,2013-03-13 23:59:00,
2013-03-13 20:04:00,30.4,16.9,30.12,ESE,113,3.1,8.9,57,2.59,,,0.00,WUHU216HW,2013-03-14 00:04:00,
2013-03-13 20:09:00,30.2,16.7,30.12,North,0,1.1,8.9,57,2.59,,,0.00,WUHU216HW,2013-03-14 00:09:00,
2013-03-13 20:14:00,30.1,16.6,30.12,NW,315,8.3,8.5,57,2.59,,,0.00,WUHU216HW,2013-03-14 00:14:00,
2013-03-13 20:19:00,30.1,17.0,30.12,WNW,293,4.0,8.3,58,2.59,,,0.00,WUHU216HW,2013-03-14 00:19:00,
2013-03-13 20:24:00,29.9,17.3,30.13,West,270,2.5,7.6,59,2.59,,,0.00,WUHU216HW,2013-03-14 00:24:00,
2013-03-13 20:29:00,29.7,17.6,30.13,WNW,293,11.4,11.4,60,2.59,,,0.00,WUHU216HW,2013-03-14 00:29:00,
2013-03-13 20:34:00,29.5,17.4,30.14,WNW,293,5.4,11.4,60,2.59,,,0.00,WUHU216HW,2013-03-14 00:34:00,
2013-03-13 20:39:00,29.5,17.7,30.14,West,270,6.3,11.4,61,2.59,,,0.00,WUHU216HW,2013-03-14 00:39:00,
2013-03-13 20:44:00,29.3,17.6,30.14,NNW,338,4.7,8.1,61,2.59,,,0.00,WUHU216HW,2013-03-14 00:44:00,
2013-03-13 20:49:00,29.2,17.4,30.14,WNW,293,5.4,8.1,61,2.59,,,0.00,WUHU216HW,2013-03-14 00:49:00,
2013-03-13 20:54:00,29.2,17.7,30.14,WNW,293,4.3,8.1,62,2.59,,,0.00,WUHU216HW,2013-03-14 00:54:00,
2013-03-13 20:59:00,29.0,17.6,30.14,WNW,293,5.1,7.6,62,2.59,,,0.00,WUHU216HW,2013-03-14 00:59:00,
2013-03-13 21:04:00,29.0,17.6,30.14,SSE,158,2.2,6.9,62,2.59,,,0.00,WUHU216HW,2013-03-14 01:04:00,
2013-03-13 21:09:00,28.8,17.1,30.15,NW,315,1.1,5.6,61,2.59,,,0.00,WUHU216HW,2013-03-14 01:09:00,
2013-03-13 21:14:00,28.8,16.3,30.15,West,270,1.6,8.5,59,2.59,,,0.00,WUHU216HW,2013-03-14 01:14:00,
2013-03-13 21:19:00,28.8,16.3,30.15,WSW,248,1.3,8.5,59,2.59,,,0.00,WUHU216HW,2013-03-14 01:19:00,
2013-03-13 21:24:00,28.6,16.1,30.15,WNW,293,4.9,5.8,59,2.59,,,0.00,WUHU216HW,2013-03-14 01:24:00,
2013-03-13 21:29:00,28.4,15.9,30.15,SW,225,2.7,5.8,59,2.59,,,0.00,WUHU216HW,2013-03-14 01:29:00,
2013-03-13 21:34:00,28.4,16.4,30.15,NW,315,1.1,5.6,60,2.59,,,0.00,WUHU216HW,2013-03-14 01:34:00,
2013-03-13 21:39:00,28.4,16.4,30.16,WNW,293,2.9,6.0,60,2.59,,,0.00,WUHU216HW,2013-03-14 01:39:00,
2013-03-13 21:44:00,28.3,16.2,30.16,South,180,3.4,7.2,60,2.59,,,0.00,WUHU216HW,2013-03-14 01:44:00,
2013-03-13 21:49:00,28.3,16.6,30.16,West,270,4.7,7.8,61,2.59,,,0.00,WUHU216HW,2013-03-14 01:49:00,
2013-03-13 21:54:00,28.3,16.9,30.16,SE,135,3.1,7.8,62,2.59,,,0.00,WUHU216HW,2013-03-14 01:54:00,
2013-03-13 21:59:00,28.1,16.7,30.16,NW,315,4.7,6.7,62,2.59,,,0.00,WUHU216HW,2013-03-14 01:59:00,
2013-03-13 22:04:00,28.1,16.7,30.16,WSW,248,2.7,6.7,62,2.59,,,0.00,WUHU216HW,2013-03-14 02:04:00,
2013-03-13 22:09:00,27.9,16.6,30.16,WNW,293,2.5,6.3,62,2.59,,,0.00,WUHU216HW,2013-03-14 02:09:00,
2013-03-13 22:14:00,27.9,16.6,30.16,West,270,4.0,6.7,62,2.59,,,0.00,WUHU216HW,2013-03-14 02:14:00,
2013-03-13 22:19:00,27.9,16.6,30.16,WNW,293,5.4,6.9,62,2.59,,,0.00,WUHU216HW,2013-03-14 02:19:00,
2013-03-13 22:24:00,27.9,16.6,30.16,West,270,8.7,9.2,62,2.59,,,0.00,WUHU216HW,2013-03-14 02:24:00,
2013-03-13 22:29:00,27.7,16.4,30.16,WNW,293,10.1,10.1,62,2.59,,,0.00,WUHU216HW,2013-03-14 02:29:00,
2013-03-13 22:34:00,27.7,16.4,30.15,WNW,293,8.5,10.1,62,2.59,,,0.00,WUHU216HW,2013-03-14 02:34:00,
2013-03-13 22:39:00,27.7,16.4,30.16,NW,315,5.4,10.1,62,2.59,,,0.00,WUHU216HW,2013-03-14 02:39:00,
2013-03-13 22:44:00,27.5,16.2,30.16,West,270,9.2,9.2,62,2.59,,,0.00,WUHU216HW,2013-03-14 02:44:00,
2013-03-13 22:49:00,27.5,16.2,30.16,NW,315,3.4,11.0,62,2.59,,,0.00,WUHU216HW,2013-03-14 02:49:00,
2013-03-13 22:54:00,27.5,16.2,30.16,SW,225,7.6,12.3,62,2.59,,,0.00,WUHU216HW,2013-03-14 02:54:00,
2013-03-13 22:59:00,27.4,16.0,30.16,South,180,5.6,12.3,62,2.59,,,0.00,WUHU216HW,2013-03-14 02:59:00,
2013-03-13 23:04:00,27.4,16.0,30.16,WNW,293,7.6,8.9,62,2.59,,,0.00,WUHU216HW,2013-03-14 03:04:00,
2013-03-13 23:09:00,27.4,16.4,30.16,WNW,293,8.1,12.1,63,2.59,,,0.00,WUHU216HW,2013-03-14 03:09:00,
2013-03-13 23:14:00,27.2,16.2,30.16,NW,315,8.9,12.1,63,2.59,,,0.00,WUHU216HW,2013-03-14 03:14:00,
2013-03-13 23:19:00,27.2,16.2,30.16,NW,315,5.8,12.1,63,2.59,,,0.00,WUHU216HW,2013-03-14 03:19:00,
2013-03-13 23:24:00,27.2,16.6,30.16,South,180,5.4,12.1,64,2.59,,,0.00,WUHU216HW,2013-03-14 03:24:00,
2013-03-13 23:29:00,27.2,16.6,30.16,SW,225,2.2,9.6,64,2.59,,,0.00,WUHU216HW,2013-03-14 03:29:00,
2013-03-13 23:34:00,27.2,16.6,30.16,West,270,2.5,9.8,64,2.59,,,0.00,WUHU216HW,2013-03-14 03:34:00,
2013-03-13 23:39:00,27.2,16.6,30.16,ESE,113,2.5,9.8,64,2.59,,,0.00,WUHU216HW,2013-03-14 03:39:00,
2013-03-13 23:44:00,27.2,16.6,30.17,NW,315,4.5,9.2,64,2.59,,,0.00,WUHU216HW,2013-03-14 03:44:00,
2013-03-13 23:49:00,27.2,16.2,30.17,West,270,6.3,9.2,63,2.59,,,0.00,WUHU216HW,2013-03-14 03:49:00,
2013-03-13 23:54:00,27.2,16.2,30.17,West,270,1.1,7.4,63,2.59,,,0.00,WUHU216HW,2013-03-14 03:54:00,
2013-03-13 23:59:00,27.2,16.2,30.17,SW,225,0.4,7.4,63,2.59,,,0.00,WUHU216HW,2013-03-14 03:59:00,